Time,TemperatureF,DewpointF,PressureIn,WindDirection,WindDirectionDegrees,WindSpeedMPH,WindSpeedGustMPH,Humidity,HourlyPrecipIn,Conditions,Clouds,dailyrainin,SoftwareType,DateUTC
2013-04-04 00:03:00,43.3,34.2,30.07,South,182,3.0,9.0,70,0.00,,,0.00,Wunderground v.1.15,2013-04-04 05:03:00,
2013-04-04 00:08:00,43.5,34.0,30.07,SW,233,4.0,10.0,69,0.00,,,0.00,Wunderground v.1.15,2013-04-04 05:08:00,
2013-04-04 00:14:00,43.7,33.8,30.07,WSW,246,4.0,11.0,68,0.00,,,0.00,Wunderground v.1.15,2013-04-04 05:14:00,
2013-04-04 00:19:00,43.9,34.0,30.06,SSE,151,9.0,13.0,68,0.00,,,0.00,Wunderground v.1.15,2013-04-04 05:19:00,
2013-04-04 00:24:00,44.0,33.7,30.06,WSW,240,5.0,16.0,67,0.00,,,0.00,Wunderground v.1.15,2013-04-04 05:24:00,
2013-04-04 00:29:00,44.2,33.9,30.06,South,188,3.0,16.0,67,0.00,,,0.00,Wunderground v.1.15,2013-04-04 05:29:00,
2013-04-04 00:34:00,44.3,34.0,30.07,SSW,213,7.0,13.0,67,0.00,,,0.00,Wunderground v.1.15,2013-04-04 05:34:00,
2013-04-04 00:39:00,44.5,33.8,30.07,SW,223,13.0,13.0,66,0.00,,,0.00,Wunderground v.1.15,2013-04-04 05:39:00,
2013-04-04 00:45:00,44.7,34.0,30.08,South,184,7.0,8.0,66,0.00,,,0.00,Wunderground v.1.15,2013-04-04 05:45:00,
2013-04-04 00:50:00,44.7,34.0,30.07,SW,216,7.0,13.0,66,0.00,,,0.00,Wunderground v.1.15,2013-04-04 05:50:00,
2013-04-04 00:55:00,44.8,33.7,30.07,WSW,250,8.0,13.0,65,0.00,,,0.00,Wunderground v.1.15,2013-04-04 05:55:00,
2013-04-04 01:00:00,44.9,33.8,30.07,WSW,243,5.0,8.0,65,0.00,,,0.00,Wunderground v.1.15,2013-04-04 06:00:00,
2013-04-04 01:07:00,44.9,33.8,30.07,SW,232,12.0,12.0,65,0.00,,,0.00,Wunderground v.1.15,2013-04-04 06:07:00,
2013-04-04 01:12:00,44.9,33.8,30.07,SSE,157,13.0,14.0,65,0.00,,,0.00,Wunderground v.1.15,2013-04-04 06:12:00,
2013-04-04 01:17:00,44.7,33.6,30.07,SW,230,5.0,14.0,65,0.00,,,0.00,Wunderground v.1.15,2013-04-04 06:17:00,
2013-04-04 01:23:00,44.6,33.9,30.07,SSW,213,6.0,8.0,66,0.00,,,0.00,Wunderground v.1.15,2013-04-04 06:23:00,
2013-04-04 01:29:00,44.5,33.8,30.07,SW,236,6.0,15.0,66,0.00,,,0.00,Wunderground v.1.15,2013-04-04 06:29:00,
2013-04-04 01:34:00,44.3,34.0,30.07,WSW,254,12.0,12.0,67,0.00,,,0.00,Wunderground v.1.15,2013-04-04 06:34:00,
2013-04-04 01:40:00,44.0,34.1,30.07,SSW,204,7.0,7.0,68,0.00,,,0.00,Wunderground v.1.15,2013-04-04 06:40:00,
2013-04-04 01:45:00,43.9,34.0,30.07,SW,227,7.0,11.0,68,0.00,,,0.00,Wunderground v.1.15,2013-04-04 06:45:00,
2013-04-04 01:51:00,43.8,33.9,30.07,SW,217,4.0,8.0,68,0.00,,,0.00,Wunderground v.1.15,2013-04-04 06:51:00,
2013-04-04 01:57:00,43.6,34.1,30.07,SW,225,6.0,11.0,69,0.00,,,0.00,Wunderground v.1.15,2013-04-04 06:57:00,
2013-04-04 02:02:00,43.5,34.0,30.06,WSW,242,3.0,7.0,69,0.00,,,0.00,Wunderground v.1.15,2013-04-04 07:02:00,
2013-04-04 02:08:00,43.4,33.9,30.06,WSW,255,3.0,11.0,69,0.00,,,0.00,Wunderground v.1.15,2013-04-04 07:08:00,
2013-04-04 02:14:00,43.3,34.2,30.05,WSW,246,5.0,11.0,70,0.00,,,0.00,Wunderground v.1.15,2013-04-04 07:14:00,
2013-04-04 02:20:00,43.2,34.1,30.05,SW,217,7.0,7.0,70,0.00,,,0.00,Wunderground v.1.15,2013-04-04 07:20:00,
2013-04-04 02:26:00,43.1,34.0,30.04,SSW,205,7.0,7.0,70,0.00,,,0.00,Wunderground v.1.15,2013-04-04 07:26:00,
2013-04-04 02:32:00,43.1,34.0,30.03,SW,226,3.0,17.0,70,0.00,,,0.00,Wunderground v.1.15,2013-04-04 07:32:00,
2013-04-04 02:39:00,43.2,34.1,30.03,SW,215,5.0,17.0,70,0.00,,,0.00,Wunderground v.1.15,2013-04-04 07:39:00,
2013-04-04 02:44:00,43.2,34.4,30.03,WSW,239,6.0,9.0,71,0.00,,,0.00,Wunderground v.1.15,2013-04-04 07:44:00,
2013-04-04 02:50:00,43.2,34.4,30.03,SW,234,11.0,11.0,71,0.00,,,0.00,Wunderground v.1.15,2013-04-04 07:50:00,
2013-04-04 02:56:00,43.4,34.3,30.03,SW,218,5.0,11.0,70,0.00,,,0.00,Wunderground v.1.15,2013-04-04 07:56:00,
2013-04-04 03:01:00,43.6,34.5,30.03,WSW,242,13.0,13.0,70,0.00,,,0.00,Wunderground v.1.15,2013-04-04 08:01:00,
2013-04-04 03:07:00,44.0,34.5,30.02,WSW,239,6.0,16.0,69,0.00,,,0.00,Wunderground v.1.15,2013-04-04 08:07:00,
2013-04-04 03:12:00,44.0,34.1,30.02,WSW,250,5.0,14.0,68,0.00,,,0.00,Wunderground v.1.15,2013-04-04 08:12:00,
2013-04-04 03:17:00,44.2,34.3,30.02,West,259,5.0,18.0,68,0.00,,,0.00,Wunderground v.1.15,2013-04-04 08:17:00,
2013-04-04 03:22:00,44.1,34.2,30.02,SW,224,7.0,17.0,68,0.00,,,0.00,Wunderground v.1.15,2013-04-04 08:22:00,
2013-04-04 03:27:00,44.1,34.6,30.02,SW,227,15.0,17.0,69,0.00,,,0.00,Wunderground v.1.15,2013-04-04 08:27:00,
2013-04-04 03:32:00,44.0,34.5,30.01,WSW,242,9.0,12.0,69,0.00,,,0.00,Wunderground v.1.15,2013-04-04 08:32:00,
2013-04-04 03:38:00,44.0,34.5,30.01,South,190,8.0,14.0,69,0.00,,,0.00,Wunderground v.1.15,2013-04-04 08:38:00,
2013-04-04 03:43:00,43.9,34.7,30.02,SW,230,10.0,13.0,70,0.00,,,0.00,Wunderground v.1.15,2013-04-04 08:43:00,
2013-04-04 03:48:00,43.9,34.7,30.01,SW,223,10.0,13.0,70,0.00,,,0.00,Wunderground v.1.15,2013-04-04 08:48:00,
2013-04-04 03:53:00,43.8,34.6,30.01,SW,225,5.0,12.0,70,0.00,,,0.00,Wunderground v.1.15,2013-04-04 08:53:00,
2013-04-04 03:58:00,43.8,34.6,30.01,WSW,250,5.0,13.0,70,0.00,,,0.00,Wunderground v.1.15,2013-04-04 08:58:00,
2013-04-04 04:03:00,43.6,34.8,30.01,WSW,258,4.0,11.0,71,0.00,,,0.00,Wunderground v.1.15,2013-04-04 09:03:00,
2013-04-04 04:08:00,43.6,34.8,30.02,WSW,257,5.0,11.0,71,0.00,,,0.00,Wunderground v.1.15,2013-04-04 09:08:00,
2013-04-04 04:14:00,43.4,34.6,30.02,WSW,252,5.0,11.0,71,0.00,,,0.00,Wunderground v.1.15,2013-04-04 09:14:00,
2013-04-04 04:19:00,43.3,34.9,30.02,WSW,252,5.0,11.0,72,0.00,,,0.00,Wunderground v.1.15,2013-04-04 09:19:00,
2013-04-04 04:24:00,43.1,34.7,30.02,WSW,245,4.0,6.0,72,0.00,,,0.00,Wunderground v.1.15,2013-04-04 09:24:00,
2013-04-04 04:29:00,43.0,34.9,30.01,West,268,4.0,9.0,73,0.00,,,0.00,Wunderground v.1.15,2013-04-04 09:29:00,
2013-04-04 04:35:00,42.8,34.7,30.01,SW,229,4.0,8.0,73,0.00,,,0.00,Wunderground v.1.15,2013-04-04 09:35:00,
2013-04-04 04:40:00,42.7,34.6,30.01,WSW,245,4.0,8.0,73,0.00,,,0.00,Wunderground v.1.15,2013-04-04 09:40:00,
2013-04-04 04:45:00,42.7,35.0,30.02,West,259,4.0,8.0,74,0.00,,,0.00,Wunderground v.1.15,2013-04-04 09:45:00,
2013-04-04 04:50:00,42.6,34.9,30.02,WSW,247,4.0,4.0,74,0.00,,,0.00,Wunderground v.1.15,2013-04-04 09:50:00,
2013-04-04 04:55:00,42.4,35.0,30.02,WSW,258,4.0,7.0,75,0.00,,,0.00,Wunderground v.1.15,2013-04-04 09:55:00,
2013-04-04 05:00:00,42.2,34.8,30.02,WSW,256,5.0,5.0,75,0.00,,,0.00,Wunderground v.1.15,2013-04-04 10:00:00,
2013-04-04 05:06:00,41.9,34.9,30.02,West,270,1.0,10.0,76,0.00,,,0.00,Wunderground v.1.15,2013-04-04 10:06:00,
2013-04-04 05:11:00,41.7,35.0,30.02,West,265,3.0,6.0,77,0.00,,,0.00,Wunderground v.1.15,2013-04-04 10:11:00,
2013-04-04 05:16:00,41.5,34.8,30.02,West,269,3.0,6.0,77,0.00,,,0.00,Wunderground v.1.15,2013-04-04 10:16:00,
2013-04-04 05:22:00,41.3,35.0,30.02,West,263,2.0,4.0,78,0.00,,,0.00,Wunderground v.1.15,2013-04-04 10:22:00,
2013-04-04 05:27:00,41.2,34.9,30.02,WSW,250,4.0,6.0,78,0.00,,,0.00,Wunderground v.1.15,2013-04-04 10:27:00,
2013-04-04 05:32:00,41.0,35.0,30.02,West,263,7.0,7.0,79,0.00,,,0.00,Wunderground v.1.15,2013-04-04 10:32:00,
2013-04-04 05:37:00,40.9,34.9,30.03,West,262,0.0,7.0,79,0.00,,,0.00,Wunderground v.1.15,2013-04-04 10:37:00,
2013-04-04 05:42:00,40.6,34.9,30.03,WSW,258,4.0,4.0,80,0.00,,,0.00,Wunderground v.1.15,2013-04-04 10:42:00,
2013-04-04 05:47:00,40.4,35.0,30.03,WSW,258,0.0,4.0,81,0.00,,,0.00,Wunderground v.1.15,2013-04-04 10:47:00,
2013-04-04 05:52:00,40.2,35.1,30.03,WSW,258,2.0,5.0,82,0.00,,,0.00,Wunderground v.1.15,2013-04-04 10:52:00,
2013-04-04 05:57:00,40.1,35.0,30.03,West,259,0.0,5.0,82,0.00,,,0.00,Wunderground v.1.15,2013-04-04 10:57:00,
2013-04-04 06:02:00,40.0,34.9,30.04,West,271,2.0,3.0,82,0.00,,,0.00,Wunderground v.1.15,2013-04-04 11:02:00,
2013-04-04 06:07:00,39.8,35.1,30.03,WNW,295,0.0,5.0,83,0.00,,,0.00,Wunderground v.1.15,2013-04-04 11:07:00,
2013-04-04 06:13:00,39.6,35.2,30.04,WNW,288,0.0,7.0,84,0.00,,,0.00,Wunderground v.1.15,2013-04-04 11:13:00,
2013-04-04 06:18:00,39.5,35.4,30.04,WNW,299,3.0,7.0,85,0.00,,,0.00,Wunderground v.1.15,2013-04-04 11:18:00,
2013-04-04 06:23:00,39.5,35.4,30.04,WNW,290,3.0,6.0,85,0.00,,,0.00,Wunderground v.1.15,2013-04-04 11:23:00,
2013-04-04 06:28:00,39.4,35.3,30.04,WNW,294,2.0,6.0,85,0.00,,,0.00,Wunderground v.1.15,2013-04-04 11:28:00,
2013-04-04 06:33:00,39.3,35.5,30.04,WNW,295,3.0,5.0,86,0.00,,,0.00,Wunderground v.1.15,2013-04-04 11:33:00,
2013-04-04 06:39:00,39.2,35.4,30.05,WNW,290,2.0,7.0,86,0.00,,,0.00,Wunderground v.1.15,2013-04-04 11:39:00,
2013-04-04 06:44:00,39.1,35.3,30.05,NW,309,0.0,6.0,86,0.00,,,0.00,Wunderground v.1.15,2013-04-04 11:44:00,
2013-04-04 06:49:00,39.0,35.2,30.05,WNW,296,3.0,6.0,86,0.00,,,0.00,Wunderground v.1.15,2013-04-04 11:49:00,
2013-04-04 06:54:00,38.9,35.4,30.05,WNW,297,0.0,2.0,87,0.00,,,0.00,Wunderground v.1.15,2013-04-04 11:54:00,
2013-04-04 06:59:00,38.8,35.3,30.05,WNW,302,3.0,6.0,87,0.00,,,0.00,Wunderground v.1.15,2013-04-04 11:59:00,
2013-04-04 07:05:00,38.7,35.2,30.05,NW,307,7.0,7.0,87,0.00,,,0.00,Wunderground v.1.15,2013-04-04 12:05:00,
2013-04-04 07:10:00,38.5,35.0,30.05,NW,312,3.0,7.0,87,0.00,,,0.00,Wunderground v.1.15,2013-04-04 12:10:00,
2013-04-04 07:15:00,38.4,34.9,30.05,WNW,301,4.0,8.0,87,0.00,,,0.00,Wunderground v.1.15,2013-04-04 12:15:00,
2013-04-04 07:20:00,38.4,35.2,30.06,NW,312,3.0,3.0,88,0.00,,,0.00,Wunderground v.1.15,2013-04-04 12:20:00,
2013-04-04 07:26:00,38.3,34.8,30.06,NW,305,0.0,3.0,87,0.00,,,0.00,Wunderground v.1.15,2013-04-04 12:26:00,
2013-04-04 07:31:00,38.3,34.8,30.06,WNW,302,4.0,4.0,87,0.00,,,0.00,Wunderground v.1.15,2013-04-04 12:31:00,
2013-04-04 07:36:00,38.2,34.7,30.06,NW,304,1.0,4.0,87,0.00,,,0.00,Wunderground v.1.15,2013-04-04 12:36:00,
2013-04-04 07:41:00,38.2,34.7,30.06,NW,313,0.0,2.0,87,0.00,,,0.00,Wunderground v.1.15,2013-04-04 12:41:00,
2013-04-04 07:46:00,38.1,34.6,30.06,NW,314,5.0,7.0,87,0.00,,,0.00,Wunderground v.1.15,2013-04-04 12:46:00,
2013-04-04 07:51:00,38.1,34.6,30.06,WNW,300,4.0,4.0,87,0.00,,,0.00,Wunderground v.1.15,2013-04-04 12:51:00,
2013-04-04 07:56:00,38.0,34.5,30.06,NW,307,5.0,5.0,87,0.00,,,0.00,Wunderground v.1.15,2013-04-04 12:56:00,
2013-04-04 08:02:00,38.0,34.5,30.07,NW,311,6.0,6.0,87,0.00,,,0.00,Wunderground v.1.15,2013-04-04 13:02:00,
2013-04-04 08:07:00,38.2,34.7,30.07,NW,311,2.0,7.0,87,0.00,,,0.00,Wunderground v.1.15,2013-04-04 13:07:00,
2013-04-04 08:12:00,38.4,34.6,30.07,NW,309,3.0,4.0,86,0.00,,,0.00,Wunderground v.1.15,2013-04-04 13:12:00,
2013-04-04 08:17:00,38.5,34.7,30.07,NW,309,2.0,8.0,86,0.00,,,0.00,Wunderground v.1.15,2013-04-04 13:17:00,
2013-04-04 08:22:00,38.5,34.4,30.07,NW,316,12.0,12.0,85,0.00,,,0.00,Wunderground v.1.15,2013-04-04 13:22:00,
2013-04-04 08:27:00,39.0,34.6,30.07,NW,304,6.0,12.0,84,0.00,,,0.00,Wunderground v.1.15,2013-04-04 13:27:00,
2013-04-04 08:32:00,39.6,34.9,30.07,WNW,290,5.0,7.0,83,0.00,,,0.00,Wunderground v.1.15,2013-04-04 13:32:00,
2013-04-04 08:38:00,40.2,34.8,30.07,NW,306,0.0,11.0,81,0.00,,,0.00,Wunderground v.1.15,2013-04-04 13:38:00,
2013-04-04 08:43:00,40.6,34.9,30.08,North,355,10.0,10.0,80,0.00,,,0.00,Wunderground v.1.15,2013-04-04 13:43:00,
2013-04-04 08:48:00,41.0,34.7,30.08,NNW,341,5.0,10.0,78,0.00,,,0.00,Wunderground v.1.15,2013-04-04 13:48:00,
2013-04-04 08:53:00,41.6,34.9,30.07,NNW,329,5.0,10.0,77,0.00,,,0.00,Wunderground v.1.15,2013-04-04 13:53:00,
2013-04-04 08:58:00,41.9,34.9,30.08,NNW,333,7.0,10.0,76,0.00,,,0.00,Wunderground v.1.15,2013-04-04 13:58:00,
2013-04-04 09:03:00,41.8,34.5,30.08,NNW,327,7.0,9.0,75,0.00,,,0.00,Wunderground v.1.15,2013-04-04 14:03:00,
2013-04-04 09:08:00,41.9,34.6,30.08,NW,319,6.0,12.0,75,0.00,,,0.00,Wunderground v.1.15,2013-04-04 14:08:00,
2013-04-04 09:13:00,42.0,34.6,30.08,North,5,4.0,12.0,75,0.00,,,0.00,Wunderground v.1.15,2013-04-04 14:13:00,
2013-04-04 09:18:00,42.2,34.8,30.08,NNE,15,4.0,12.0,75,0.00,,,0.00,Wunderground v.1.15,2013-04-04 14:18:00,
2013-04-04 09:23:00,42.4,34.7,30.08,NNW,329,7.0,11.0,74,0.00,,,0.00,Wunderground v.1.15,2013-04-04 14:23:00,
2013-04-04 09:28:00,43.0,34.6,30.08,WNW,298,7.0,14.0,72,0.00,,,0.00,Wunderground v.1.15,2013-04-04 14:28:00,
2013-04-04 09:34:00,42.8,34.4,30.08,North,5,10.0,12.0,72,0.00,,,0.00,Wunderground v.1.15,2013-04-04 14:34:00,
2013-04-04 09:39:00,42.8,34.7,30.09,NW,308,4.0,12.0,73,0.00,,,0.00,Wunderground v.1.15,2013-04-04 14:39:00,
2013-04-04 09:44:00,43.1,34.7,30.09,NNW,331,7.0,8.0,72,0.00,,,0.00,Wunderground v.1.15,2013-04-04 14:44:00,
2013-04-04 09:49:00,43.2,34.4,30.09,NNW,329,8.0,12.0,71,0.00,,,0.00,Wunderground v.1.15,2013-04-04 14:49:00,
2013-04-04 09:54:00,43.4,34.6,30.10,NW,320,2.0,10.0,71,0.00,,,0.00,Wunderground v.1.15,2013-04-04 14:54:00,
2013-04-04 10:00:00,43.2,34.4,30.10,WNW,284,4.0,13.0,71,0.00,,,0.00,Wunderground v.1.15,2013-04-04 15:00:00,
2013-04-04 10:05:00,42.9,34.1,30.10,NNW,335,4.0,11.0,71,0.00,,,0.00,Wunderground v.1.15,2013-04-04 15:05:00,
2013-04-04 10:10:00,43.0,34.2,30.10,North,360,10.0,11.0,71,0.00,,,0.00,Wunderground v.1.15,2013-04-04 15:10:00,
2013-04-04 10:15:00,43.4,33.9,30.10,NW,309,4.0,11.0,69,0.00,,,0.00,Wunderground v.1.15,2013-04-04 15:15:00,
2013-04-04 10:20:00,43.5,34.0,30.10,NW,317,2.0,11.0,69,0.00,,,0.00,Wunderground v.1.15,2013-04-04 15:20:00,
2013-04-04 10:25:00,43.7,34.2,30.10,NW,317,4.0,10.0,69,0.00,,,0.00,Wunderground v.1.15,2013-04-04 15:25:00,
2013-04-04 10:30:00,43.9,34.0,30.10,West,280,7.0,10.0,68,0.00,,,0.00,Wunderground v.1.15,2013-04-04 15:30:00,
2013-04-04 10:35:00,44.2,33.9,30.10,NW,305,6.0,10.0,67,0.00,,,0.00,Wunderground v.1.15,2013-04-04 15:35:00,
2013-04-04 10:40:00,44.7,34.4,30.10,NNW,342,2.0,4.0,67,0.00,,,0.00,Wunderground v.1.15,2013-04-04 15:40:00,
2013-04-04 10:45:00,44.8,34.1,30.10,WNW,298,7.0,8.0,66,0.00,,,0.00,Wunderground v.1.15,2013-04-04 15:45:00,
2013-04-04 10:50:00,45.0,34.3,30.10,NNW,333,0.0,4.0,66,0.00,,,0.00,Wunderground v.1.15,2013-04-04 15:50:00,
2013-04-04 10:55:00,45.3,34.6,30.10,NNW,338,0.0,8.0,66,0.00,,,0.00,Wunderground v.1.15,2013-04-04 15:55:00,
2013-04-04 11:01:00,45.8,34.3,30.10,NNW,331,0.0,3.0,64,0.00,,,0.00,Wunderground v.1.15,2013-04-04 16:01:00,
2013-04-04 11:06:00,46.0,34.5,30.10,NNW,328,6.0,8.0,64,0.00,,,0.00,Wunderground v.1.15,2013-04-04 16:06:00,
2013-04-04 11:12:00,46.4,34.1,30.10,North,5,0.0,3.0,62,0.00,,,0.00,Wunderground v.1.15,2013-04-04 16:12:00,
2013-04-04 11:17:00,47.1,34.7,30.11,North,355,6.0,7.0,62,0.00,,,0.00,Wunderground v.1.15,2013-04-04 16:17:00,
2013-04-04 11:22:00,47.4,33.8,30.11,NNW,332,1.0,3.0,59,0.00,,,0.00,Wunderground v.1.15,2013-04-04 16:22:00,
2013-04-04 11:27:00,47.7,33.6,30.11,NW,311,0.0,8.0,58,0.00,,,0.00,Wunderground v.1.15,2013-04-04 16:27:00,
2013-04-04 11:33:00,48.2,33.7,30.11,NW,326,6.0,6.0,57,0.00,,,0.00,Wunderground v.1.15,2013-04-04 16:33:00,
2013-04-04 11:38:00,48.7,33.2,30.11,NW,324,8.0,9.0,55,0.00,,,0.00,Wunderground v.1.15,2013-04-04 16:38:00,
2013-04-04 11:43:00,48.7,33.7,30.12,NW,304,3.0,9.0,56,0.00,,,0.00,Wunderground v.1.15,2013-04-04 16:43:00,
2013-04-04 11:48:00,48.7,33.7,30.12,NW,325,0.0,9.0,56,0.00,,,0.00,Wunderground v.1.15,2013-04-04 16:48:00,
2013-04-04 11:54:00,49.3,33.3,30.12,NW,323,7.0,10.0,54,0.00,,,0.00,Wunderground v.1.15,2013-04-04 16:54:00,
2013-04-04 11:59:00,49.3,33.3,30.12,NW,305,5.0,10.0,54,0.00,,,0.00,Wunderground v.1.15,2013-04-04 16:59:00,
2013-04-04 12:04:00,49.0,34.0,30.12,NW,315,2.0,8.0,56,0.00,,,0.00,Wunderground v.1.15,2013-04-04 17:04:00,
2013-04-04 12:09:00,49.2,32.8,30.12,NNW,346,7.0,8.0,53,0.00,,,0.00,Wunderground v.1.15,2013-04-04 17:09:00,
2013-04-04 12:14:00,49.8,33.3,30.13,NW,325,3.0,7.0,53,0.00,,,0.00,Wunderground v.1.15,2013-04-04 17:14:00,
2013-04-04 12:19:00,49.7,33.7,30.12,NW,326,3.0,8.0,54,0.00,,,0.00,Wunderground v.1.15,2013-04-04 17:19:00,
2013-04-04 12:25:00,50.1,33.1,30.12,NNW,348,6.0,10.0,52,0.00,,,0.00,Wunderground v.1.15,2013-04-04 17:25:00,
2013-04-04 12:30:00,50.3,32.8,30.12,WNW,296,6.0,10.0,51,0.00,,,0.00,Wunderground v.1.15,2013-04-04 17:30:00,
2013-04-04 12:35:00,50.2,33.7,30.12,NW,311,5.0,8.0,53,0.00,,,0.00,Wunderground v.1.15,2013-04-04 17:35:00,
2013-04-04 12:40:00,50.1,33.1,30.12,WNW,293,2.0,5.0,52,0.00,,,0.00,Wunderground v.1.15,2013-04-04 17:40:00,
2013-04-04 12:46:00,50.5,33.0,30.12,WNW,294,5.0,8.0,51,0.00,,,0.00,Wunderground v.1.15,2013-04-04 17:46:00,
2013-04-04 12:52:00,50.6,33.1,30.12,NW,304,5.0,6.0,51,0.00,,,0.00,Wunderground v.1.15,2013-04-04 17:52:00,
2013-04-04 12:57:00,50.9,32.9,30.11,NNW,331,3.0,12.0,50,0.00,,,0.00,Wunderground v.1.15,2013-04-04 17:57:00,
2013-04-04 13:02:00,50.7,31.7,30.12,WNW,296,10.0,12.0,48,0.00,,,0.00,Wunderground v.1.15,2013-04-04 18:02:00,
2013-04-04 13:07:00,51.0,32.0,30.12,NE,35,8.0,12.0,48,0.00,,,0.00,Wunderground v.1.15,2013-04-04 18:07:00,
2013-04-04 13:12:00,51.6,32.0,30.12,North,355,10.0,13.0,47,0.00,,,0.00,Wunderground v.1.15,2013-04-04 18:12:00,
2013-04-04 13:17:00,51.7,32.1,30.12,North,360,8.0,14.0,47,0.00,,,0.00,Wunderground v.1.15,2013-04-04 18:17:00,
2013-04-04 13:22:00,52.1,31.9,30.12,WNW,289,6.0,7.0,46,0.00,,,0.00,Wunderground v.1.15,2013-04-04 18:22:00,
2013-04-04 13:27:00,52.0,33.4,30.11,ENE,67,2.0,10.0,49,0.00,,,0.00,Wunderground v.1.15,2013-04-04 18:27:00,
2013-04-04 13:32:00,52.1,33.0,30.11,NW,319,4.0,7.0,48,0.00,,,0.00,Wunderground v.1.15,2013-04-04 18:32:00,
2013-04-04 13:38:00,52.0,31.8,30.12,WNW,294,6.0,9.0,46,0.00,,,0.00,Wunderground v.1.15,2013-04-04 18:38:00,
2013-04-04 13:43:00,51.6,30.9,30.12,NW,313,7.0,12.0,45,0.00,,,0.00,Wunderground v.1.15,2013-04-04 18:43:00,
2013-04-04 13:48:00,51.3,31.2,30.12,North,9,3.0,12.0,46,0.00,,,0.00,Wunderground v.1.15,2013-04-04 18:48:00,
2013-04-04 13:54:00,51.5,31.4,30.12,WNW,303,7.0,12.0,46,0.00,,,0.00,Wunderground v.1.15,2013-04-04 18:54:00,
2013-04-04 13:59:00,51.5,30.8,30.12,NW,317,9.0,12.0,45,0.00,,,0.00,Wunderground v.1.15,2013-04-04 18:59:00,
2013-04-04 14:04:00,51.4,31.3,30.13,NNE,17,13.0,15.0,46,0.00,,,0.00,Wunderground v.1.15,2013-04-04 19:04:00,
2013-04-04 14:09:00,51.2,31.6,30.13,NW,323,9.0,15.0,47,0.00,,,0.00,Wunderground v.1.15,2013-04-04 19:09:00,
2013-04-04 14:15:00,51.5,31.9,30.13,NW,320,2.0,12.0,47,0.00,,,0.00,Wunderground v.1.15,2013-04-04 19:15:00,
2013-04-04 14:20:00,51.7,32.6,30.13,NW,304,7.0,15.0,48,0.00,,,0.00,Wunderground v.1.15,2013-04-04 19:20:00,
2013-04-04 14:25:00,51.3,31.7,30.13,NNW,339,9.0,14.0,47,0.00,,,0.00,Wunderground v.1.15,2013-04-04 19:25:00,
2013-04-04 14:30:00,51.6,32.5,30.12,WNW,293,8.0,14.0,48,0.00,,,0.00,Wunderground v.1.15,2013-04-04 19:30:00,
2013-04-04 14:35:00,51.5,31.9,30.12,WNW,288,1.0,13.0,47,0.00,,,0.00,Wunderground v.1.15,2013-04-04 19:35:00,
2013-04-04 14:40:00,51.9,32.3,30.12,NW,313,3.0,5.0,47,0.00,,,0.00,Wunderground v.1.15,2013-04-04 19:40:00,
2013-04-04 14:46:00,52.3,31.6,30.12,NW,309,4.0,12.0,45,0.00,,,0.00,Wunderground v.1.15,2013-04-04 19:46:00,
2013-04-04 14:51:00,52.3,32.1,30.12,NW,313,3.0,5.0,46,0.00,,,0.00,Wunderground v.1.15,2013-04-04 19:51:00,
2013-04-04 14:56:00,52.0,32.9,30.12,NNW,345,8.0,8.0,48,0.00,,,0.00,Wunderground v.1.15,2013-04-04 19:56:00,
2013-04-04 15:01:00,51.7,31.0,30.12,NW,317,11.0,11.0,45,0.00,,,0.00,Wunderground v.1.15,2013-04-04 20:01:00,
2013-04-04 15:06:00,51.5,32.4,30.12,NNE,25,9.0,13.0,48,0.00,,,0.00,Wunderground v.1.15,2013-04-04 20:06:00,
2013-04-04 15:12:00,51.3,31.2,30.11,NNW,327,11.0,11.0,46,0.00,,,0.00,Wunderground v.1.15,2013-04-04 20:12:00,
2013-04-04 15:17:00,50.8,29.6,30.11,NW,306,6.0,16.0,44,0.00,,,0.00,Wunderground v.1.15,2013-04-04 20:17:00,
2013-04-04 15:22:00,50.8,30.7,30.11,NNW,345,9.0,11.0,46,0.00,,,0.00,Wunderground v.1.15,2013-04-04 20:22:00,
2013-04-04 15:27:00,50.7,30.7,30.12,NW,326,6.0,15.0,46,0.00,,,0.00,Wunderground v.1.15,2013-04-04 20:27:00,
2013-04-04 15:32:00,50.9,30.8,30.12,NW,325,3.0,7.0,46,0.00,,,0.00,Wunderground v.1.15,2013-04-04 20:32:00,
2013-04-04 15:37:00,51.2,30.6,30.12,North,350,12.0,13.0,45,0.00,,,0.00,Wunderground v.1.15,2013-04-04 20:37:00,
2013-04-04 15:43:00,51.4,31.3,30.12,NW,308,4.0,12.0,46,0.00,,,0.00,Wunderground v.1.15,2013-04-04 20:43:00,
2013-04-04 15:48:00,51.1,31.6,30.12,WNW,301,6.0,13.0,47,0.00,,,0.00,Wunderground v.1.15,2013-04-04 20:48:00,
2013-04-04 15:53:00,51.0,31.5,30.12,North,355,7.0,9.0,47,0.00,,,0.00,Wunderground v.1.15,2013-04-04 20:53:00,
2013-04-04 15:58:00,51.0,32.0,30.12,North,350,9.0,15.0,48,0.00,,,0.00,Wunderground v.1.15,2013-04-04 20:58:00,
2013-04-04 16:04:00,50.9,30.3,30.12,North,360,8.0,10.0,45,0.00,,,0.00,Wunderground v.1.15,2013-04-04 21:04:00,
2013-04-04 16:09:00,50.5,30.5,30.12,WNW,298,6.0,13.0,46,0.00,,,0.00,Wunderground v.1.15,2013-04-04 21:09:00,
2013-04-04 16:14:00,50.6,28.9,30.12,NNW,346,10.0,11.0,43,0.00,,,0.00,Wunderground v.1.15,2013-04-04 21:14:00,
2013-04-04 16:19:00,50.4,29.8,30.12,NW,321,5.0,13.0,45,0.00,,,0.00,Wunderground v.1.15,2013-04-04 21:19:00,
2013-04-04 16:25:00,50.7,30.1,30.12,NNE,26,8.0,12.0,45,0.00,,,0.00,Wunderground v.1.15,2013-04-04 21:25:00,
2013-04-04 16:30:00,50.7,30.7,30.11,North,5,10.0,12.0,46,0.00,,,0.00,Wunderground v.1.15,2013-04-04 21:30:00,
2013-04-04 16:35:00,50.5,30.5,30.12,NNE,13,13.0,13.0,46,0.00,,,0.00,Wunderground v.1.15,2013-04-04 21:35:00,
2013-04-04 16:40:00,50.4,29.3,30.11,North,360,2.0,13.0,44,0.00,,,0.00,Wunderground v.1.15,2013-04-04 21:40:00,
2013-04-04 16:45:00,50.4,29.8,30.11,NNE,28,2.0,12.0,45,0.00,,,0.00,Wunderground v.1.15,2013-04-04 21:45:00,
2013-04-04 16:50:00,50.4,30.4,30.12,NW,318,4.0,12.0,46,0.00,,,0.00,Wunderground v.1.15,2013-04-04 21:50:00,
2013-04-04 16:55:00,50.4,29.8,30.12,NW,309,6.0,12.0,45,0.00,,,0.00,Wunderground v.1.15,2013-04-04 21:55:00,
2013-04-04 17:00:00,50.0,29.5,30.12,NW,309,6.0,12.0,45,0.00,,,0.00,Wunderground v.1.15,2013-04-04 22:00:00,
2013-04-04 17:06:00,49.6,30.2,30.12,NW,312,8.0,13.0,47,0.00,,,0.00,Wunderground v.1.15,2013-04-04 22:06:00,
2013-04-04 17:11:00,49.4,29.5,30.12,NW,309,6.0,9.0,46,0.00,,,0.00,Wunderground v.1.15,2013-04-04 22:11:00,
2013-04-04 17:16:00,49.2,28.7,30.12,NW,304,7.0,12.0,45,0.00,,,0.00,Wunderground v.1.15,2013-04-04 22:16:00,
2013-04-04 17:21:00,49.0,28.6,30.12,North,355,10.0,10.0,45,0.00,,,0.00,Wunderground v.1.15,2013-04-04 22:21:00,
2013-04-04 17:27:00,48.7,28.3,30.12,NW,325,6.0,15.0,45,0.00,,,0.00,Wunderground v.1.15,2013-04-04 22:27:00,
2013-04-04 17:32:00,48.5,28.1,30.12,NW,306,5.0,14.0,45,0.00,,,0.00,Wunderground v.1.15,2013-04-04 22:32:00,
2013-04-04 17:37:00,48.3,27.4,30.12,NNW,328,7.0,14.0,44,0.00,,,0.00,Wunderground v.1.15,2013-04-04 22:37:00,
2013-04-04 17:42:00,47.8,26.9,30.12,West,275,3.0,9.0,44,0.00,,,0.00,Wunderground v.1.15,2013-04-04 22:42:00,
2013-04-04 17:47:00,47.4,27.1,30.12,NW,304,8.0,11.0,45,0.00,,,0.00,Wunderground v.1.15,2013-04-04 22:47:00,
2013-04-04 17:52:00,47.3,27.5,30.12,NW,320,2.0,9.0,46,0.00,,,0.00,Wunderground v.1.15,2013-04-04 22:52:00,
2013-04-04 17:57:00,47.2,27.5,30.12,North,360,10.0,11.0,46,0.00,,,0.00,Wunderground v.1.15,2013-04-04 22:57:00,
2013-04-04 18:02:00,47.4,28.2,30.12,NW,321,2.0,6.0,47,0.00,,,0.00,Wunderground v.1.15,2013-04-04 23:02:00,
2013-04-04 18:07:00,47.1,27.4,30.12,North,351,5.0,11.0,46,0.00,,,0.00,Wunderground v.1.15,2013-04-04 23:07:00,
2013-04-04 18:13:00,46.5,27.3,30.12,NW,308,4.0,12.0,47,0.00,,,0.00,Wunderground v.1.15,2013-04-04 23:13:00,
2013-04-04 18:18:00,46.0,26.9,30.12,WNW,292,3.0,12.0,47,0.00,,,0.00,Wunderground v.1.15,2013-04-04 23:18:00,
2013-04-04 18:23:00,45.9,27.3,30.12,NW,319,4.0,11.0,48,0.00,,,0.00,Wunderground v.1.15,2013-04-04 23:23:00,
2013-04-04 18:28:00,45.8,26.7,30.12,WNW,296,3.0,11.0,47,0.00,,,0.00,Wunderground v.1.15,2013-04-04 23:28:00,
2013-04-04 18:33:00,45.6,26.5,30.13,North,5,4.0,10.0,47,0.00,,,0.00,Wunderground v.1.15,2013-04-04 23:33:00,
2013-04-04 18:38:00,45.5,26.4,30.13,NW,323,0.0,10.0,47,0.00,,,0.00,Wunderground v.1.15,2013-04-04 23:38:00,
2013-04-04 18:44:00,45.1,26.1,30.13,North,351,9.0,9.0,47,0.00,,,0.00,Wunderground v.1.15,2013-04-04 23:44:00,
2013-04-04 18:49:00,44.7,26.2,30.13,NW,314,5.0,11.0,48,0.00,,,0.00,Wunderground v.1.15,2013-04-04 23:49:00,
2013-04-04 18:54:00,44.4,25.9,30.13,North,355,3.0,6.0,48,0.00,,,0.00,Wunderground v.1.15,2013-04-04 23:54:00,
2013-04-04 18:59:00,43.9,26.0,30.13,NW,309,5.0,9.0,49,0.00,,,0.00,Wunderground v.1.15,2013-04-04 23:59:00,
2013-04-04 19:05:00,43.6,25.7,30.13,NW,307,5.0,8.0,49,0.00,,,0.00,Wunderground v.1.15,2013-04-05 00:05:00,
2013-04-04 19:10:00,43.3,25.9,30.13,NW,311,3.0,8.0,50,0.00,,,0.00,Wunderground v.1.15,2013-04-05 00:10:00,
2013-04-04 19:15:00,43.0,25.6,30.14,NW,325,0.0,8.0,50,0.00,,,0.00,Wunderground v.1.15,2013-04-05 00:15:00,
2013-04-04 19:20:00,42.6,25.2,30.14,NNW,343,0.0,4.0,50,0.00,,,0.00,Wunderground v.1.15,2013-04-05 00:20:00,
2013-04-04 19:25:00,42.1,25.3,30.14,WNW,301,0.0,6.0,51,0.00,,,0.00,Wunderground v.1.15,2013-04-05 00:25:00,
2013-04-04 19:30:00,41.7,25.4,30.14,WNW,296,7.0,7.0,52,0.00,,,0.00,Wunderground v.1.15,2013-04-05 00:30:00,
2013-04-04 19:36:00,41.5,25.6,30.14,NW,305,5.0,7.0,53,0.00,,,0.00,Wunderground v.1.15,2013-04-05 00:36:00,
2013-04-04 19:41:00,41.2,25.8,30.14,NW,310,0.0,3.0,54,0.00,,,0.00,Wunderground v.1.15,2013-04-05 00:41:00,
2013-04-04 19:46:00,40.9,26.4,30.14,North,350,3.0,8.0,56,0.00,,,0.00,Wunderground v.1.15,2013-04-05 00:46:00,
2013-04-04 19:51:00,40.5,26.4,30.14,NW,313,0.0,2.0,57,0.00,,,0.00,Wunderground v.1.15,2013-04-05 00:51:00,
2013-04-04 19:56:00,40.1,26.9,30.15,NW,321,2.0,5.0,59,0.00,,,0.00,Wunderground v.1.15,2013-04-05 00:56:00,
2013-04-04 20:01:00,39.7,26.5,30.14,WNW,301,0.0,3.0,59,0.00,,,0.00,Wunderground v.1.15,2013-04-05 01:01:00,
2013-04-04 20:06:00,39.4,26.7,30.14,NW,315,2.0,5.0,60,0.00,,,0.00,Wunderground v.1.15,2013-04-05 01:06:00,
2013-04-04 20:12:00,38.9,26.6,30.14,NW,311,0.0,1.0,61,0.00,,,0.00,Wunderground v.1.15,2013-04-05 01:12:00,
2013-04-04 20:17:00,38.5,26.6,30.15,NW,311,4.0,4.0,62,0.00,,,0.00,Wunderground v.1.15,2013-04-05 01:17:00,
2013-04-04 20:22:00,38.1,26.6,30.15,WNW,301,0.0,3.0,63,0.00,,,0.00,Wunderground v.1.15,2013-04-05 01:22:00,
2013-04-04 20:27:00,37.7,26.6,30.15,WNW,301,0.0,3.0,64,0.00,,,0.00,Wunderground v.1.15,2013-04-05 01:27:00,
2013-04-04 20:32:00,37.4,26.7,30.15,WNW,300,1.0,3.0,65,0.00,,,0.00,Wunderground v.1.15,2013-04-05 01:32:00,
2013-04-04 20:37:00,37.0,26.3,30.15,WNW,301,0.0,3.0,65,0.00,,,0.00,Wunderground v.1.15,2013-04-05 01:37:00,
2013-04-04 20:42:00,36.6,26.3,30.16,WNW,302,0.0,1.0,66,0.00,,,0.00,Wunderground v.1.15,2013-04-05 01:42:00,
2013-04-04 20:47:00,36.3,26.4,30.16,NW,313,2.0,5.0,67,0.00,,,0.00,Wunderground v.1.15,2013-04-05 01:47:00,
2013-04-04 20:53:00,36.0,26.1,30.16,NW,313,0.0,4.0,67,0.00,,,0.00,Wunderground v.1.15,2013-04-05 01:53:00,
2013-04-04 20:58:00,35.8,25.9,30.16,WNW,299,3.0,7.0,67,0.00,,,0.00,Wunderground v.1.15,2013-04-05 01:58:00,
2013-04-04 21:03:00,35.7,26.2,30.16,NW,312,0.0,4.0,68,0.00,,,0.00,Wunderground v.1.15,2013-04-05 02:03:00,
2013-04-04 21:08:00,35.6,26.1,30.17,NW,313,0.0,4.0,68,0.00,,,0.00,Wunderground v.1.15,2013-04-05 02:08:00,
2013-04-04 21:14:00,35.3,25.8,30.17,NW,323,0.0,4.0,68,0.00,,,0.00,Wunderground v.1.15,2013-04-05 02:14:00,
2013-04-04 21:19:00,35.1,25.9,30.17,NW,316,0.0,4.0,69,0.00,,,0.00,Wunderground v.1.15,2013-04-05 02:19:00,
2013-04-04 21:24:00,34.9,25.8,30.17,NW,323,0.0,3.0,69,0.00,,,0.00,Wunderground v.1.15,2013-04-05 02:24:00,
2013-04-04 21:29:00,34.8,25.7,30.17,North,360,0.0,3.0,69,0.00,,,0.00,Wunderground v.1.15,2013-04-05 02:29:00,
2013-04-04 21:34:00,34.6,25.8,30.17,NW,313,3.0,6.0,70,0.00,,,0.00,Wunderground v.1.15,2013-04-05 02:34:00,
2013-04-04 21:39:00,34.5,25.7,30.17,NNW,339,1.0,6.0,70,0.00,,,0.00,Wunderground v.1.15,2013-04-05 02:39:00,
2013-04-04 21:44:00,34.3,25.5,30.17,NW,317,0.0,4.0,70,0.00,,,0.00,Wunderground v.1.15,2013-04-05 02:44:00,
2013-04-04 21:50:00,34.1,25.7,30.17,NW,317,0.0,4.0,71,0.00,,,0.00,Wunderground v.1.15,2013-04-05 02:50:00,
2013-04-04 21:55:00,34.0,25.6,30.17,NW,323,0.0,4.0,71,0.00,,,0.00,Wunderground v.1.15,2013-04-05 02:55:00,
2013-04-04 22:00:00,33.9,25.5,30.18,NNW,327,1.0,4.0,71,0.00,,,0.00,Wunderground v.1.15,2013-04-05 03:00:00,
2013-04-04 22:06:00,33.6,25.5,30.18,NNW,337,0.0,3.0,72,0.00,,,0.00,Wunderground v.1.15,2013-04-05 03:06:00,
2013-04-04 22:12:00,33.2,25.5,30.18,NNW,336,0.0,1.0,73,0.00,,,0.00,Wunderground v.1.15,2013-04-05 03:12:00,
2013-04-04 22:17:00,33.0,25.3,30.18,NW,314,0.0,5.0,73,0.00,,,0.00,Wunderground v.1.15,2013-04-05 03:17:00,
2013-04-04 22:22:00,32.7,25.3,30.18,NW,314,0.0,3.0,74,0.00,,,0.00,Wunderground v.1.15,2013-04-05 03:22:00,
2013-04-04 22:27:00,32.4,25.0,30.18,NW,313,0.0,4.0,74,0.00,,,0.00,Wunderground v.1.15,2013-04-05 03:27:00,
2013-04-04 22:32:00,32.1,25.1,30.18,NW,313,0.0,1.0,75,0.00,,,0.00,Wunderground v.1.15,2013-04-05 03:32:00,
2013-04-04 22:37:00,31.8,24.8,30.18,NW,313,1.0,2.0,75,0.00,,,0.00,Wunderground v.1.15,2013-04-05 03:37:00,
2013-04-04 22:42:00,31.5,24.8,30.18,NW,315,0.0,0.0,76,0.00,,,0.00,Wunderground v.1.15,2013-04-05 03:42:00,
2013-04-04 22:47:00,31.2,24.8,30.18,NW,315,0.0,0.0,77,0.00,,,0.00,Wunderground v.1.15,2013-04-05 03:47:00,
2013-04-04 22:52:00,30.9,24.5,30.19,NW,315,0.0,1.0,77,0.00,,,0.00,Wunderground v.1.15,2013-04-05 03:52:00,
2013-04-04 22:57:00,30.8,24.7,30.19,NW,315,0.0,1.0,78,0.00,,,0.00,Wunderground v.1.15,2013-04-05 03:57:00,
2013-04-04 23:00:00,30.7,24.7,30.19,NW,315,0.0,1.0,78,0.00,,,0.00,Wunderground v.1.15,2013-04-05 04:00:00,
2013-04-04 23:03:00,30.6,24.2,30.19,NW,315,0.0,0.0,77,0.00,,,0.00,Wunderground v.1.15,2013-04-05 04:03:00,
2013-04-04 23:08:00,30.3,24.3,30.19,NW,315,0.0,0.0,78,0.00,,,0.00,Wunderground v.1.15,2013-04-05 04:08:00,
2013-04-04 23:13:00,30.1,24.1,30.20,NW,315,0.0,0.0,78,0.00,,,0.00,Wunderground v.1.15,2013-04-05 04:13:00,
2013-04-04 23:18:00,29.9,24.2,30.20,NW,315,0.0,0.0,79,0.00,,,0.00,Wunderground v.1.15,2013-04-05 04:18:00,
2013-04-04 23:23:00,29.6,23.9,30.20,NW,315,0.0,0.0,79,0.00,,,0.00,Wunderground v.1.15,2013-04-05 04:23:00,
2013-04-04 23:29:00,29.3,23.9,30.20,NW,315,0.0,0.0,80,0.00,,,0.00,Wunderground v.1.15,2013-04-05 04:29:00,
2013-04-04 23:34:00,29.1,23.7,30.20,NW,315,0.0,0.0,80,0.00,,,0.00,Wunderground v.1.15,2013-04-05 04:34:00,
2013-04-04 23:39:00,28.9,23.8,30.21,NW,315,0.0,0.0,81,0.00,,,0.00,Wunderground v.1.15,2013-04-05 04:39:00,
2013-04-04 23:44:00,28.7,23.6,30.21,NW,315,0.0,0.0,81,0.00,,,0.00,Wunderground v.1.15,2013-04-05 04:44:00,
2013-04-04 23:49:00,28.5,23.7,30.21,NW,315,0.0,0.0,82,0.00,,,0.00,Wunderground v.1.15,2013-04-05 04:49:00,
2013-04-04 23:55:00,28.4,23.6,30.21,NW,315,0.0,0.0,82,0.00,,,0.00,Wunderground v.1.15,2013-04-05 04:55:00,